Terminal Aerodrome Forecast
Issued by NWS

Home | Current Version | Previous Version | Text Only | Print | Product List | Glossary On
Versions: 1 2 3 4 5 6 7 8 9 10 11 12 13 14 15
688
FTUS44 KLZK 300520
TAFHRO
TAF
KHRO 300520Z 3006/3106 VRB03KT P6SM SCT050 BKN250
     FM301000 VRB03KT 5SM BR SCT250
     FM301400 12006KT P6SM SCT250
     FM301800 12007KT P6SM VCTS SCT050CB SCT250=

USA.gov is the U.S. government's official web portal to all federal, state and local government web resources and services.